STARLINK-2084 (47368 NORAD) Tracking and Keplerian Element Data

This shows tracking and keplerian element data for the satellite.

Feedback or suggestion? Click here.




ElementValue
Catalog47368
NameSTARLINK-2084
Epoch Orbit1442
Epoch Day106.25002315
Epoch Year2021
RAAN170.2356
Inclination53.0552
Eccentricity0.0001081
Argument of Perigee89.0469
Mean Anonmoly356.7743
Mean Motion15.06406281
Decay Rate-0.0001489
L11 47368U 21005V 21106.25002315 -.00014890 00000-0 -98266-3 0 9992
L22 47368 53.0552 170.2356 0001081 89.0469 356.7743 15.06406281 14429

Live tracking and technical data element details for STARLINK-2084 (NORAD 47368). STARLINK-2084 can be tracked NOW for your location showing map with azimuth and elevation plus other details from your city location.

Track the satellite on the map from your city or location and see movement details for azimuth, elevation, latitude, longitude, range, height, and movement on the map or in text.







IsCatalogInMostPopularTable: catalog: 47368, numindb: 17
Update: records affected: 1



GetName: 47368 STARLINK-2084

Hit Count: updated at: Fri, 16 Apr 2021 11:20:28 GMT